Location: El Bakhil
(32.7726°N, 5.5387°W)
Time: 19:46:33
(UTC+00:00)

Envisat - Pass Details

Date: 11 December 2021
Orbit: 764 x 766 km, 98.2° (Epoch: 18 January)

Event Time Altitude Azimuth Distance (km) Brightness Sun altitude
Rises 04:35:07 0° 24° (NNE) 3,234 6.4 -32.6°
Reaches altitude 10° 04:37:40 10° 34° (NE) 2,304 5.7 -32.1°
Maximum altitude 04:42:11 32° 97° (E) 1,288 4.6 -31.2°
Drops below altitude 10° 04:46:41 10° 160° (SSE) 2,290 5.8 -30.2°
Sets 04:49:11 0° 170° (S) 3,212 6.5 -29.7°
